Wind_Speed
22 22 22 22 22 22 22 22 22 22 23 23 23 23 22 22 22 22 22 22 23 23 24 25 25 25 27 28 29 30 30 30 29 30 30 29 29 29 29 29 29 30 31 31 30 29 29 29 29 28 26 24 23 23 23 23 23 23 24 24 24 24 24 24 24 24 24 25 25
23 23 22 22 22 23 22 22 22 23 24 23 22 22 22 22 22 22 23 23 23 24 25 25 26 27 28 29 29 29 30 30 29 29 29 29 29 29 29 29 29 30 30 31 30 29 29 31 31 29 26 24 23 23 23 22 22 23 24 24 24 24 24 24 25 25 24 23 23
23 23 23 23 23 24 23 23 23 24 25 24 22 21 21 22 22 22 23 23 24 24 25 25 26 27 28 28 29 29 30 29 29 29 28 28 28 28 29 29 30 30 30 30 29 29 30 31 30 28 25 24 24 23 23 23 23 24 25 25 24 24 23 22 23 22 21 21 20
23 23 23 23 24 24 24 24 24 25 24 23 22 21 21 22 22 23 24 24 25 25 25 26 27 27 27 28 29 30 30 29 28 28 28 28 28 28 29 29 30 30 30 30 30 30 30 31 28 26 25 25 25 24 24 24 24 24 25 25 25 24 23 23 23 23 21 20 20
23 23 23 23 24 24 24 24 24 25 24 23 22 22 22 22 23 23 25 25 25 25 26 27 27 26 27 29 30 30 30 28 27 27 27 28 28 28 29 29 29 29 30 30 30 30 30 30 27 25 25 25 24 24 24 25 26 26 26 26 26 25 25 24 24 22 21 20 20
23 23 23 23 24 24 24 24 24 24 23 22 22 23 23 24 24 25 25 25 25 26 26 26 26 26 28 29 30 30 29 27 27 27 27 27 28 28 29 29 29 29 29 29 30 29 29 28 26 25 25 25 24 24 25 26 27 26 26 26 25 26 26 25 24 22 21 20 19
23 23 23 24 24 24 24 25 25 24 23 22 22 23 24 25 25 26 26 26 26 26 26 25 26 27 29 29 30 30 28 27 27 27 27 27 27 28 28 28 28 28 29 29 29 29 28 27 25 25 25 25 25 25 26 27 27 26 26 25 24 24 24 24 23 21 20 18 16
22 23 23 23 23 24 24 25 25 24 23 22 23 24 25 26 26 26 26 26 25 25 25 26 26 28 29 29 30 29 28 27 27 27 27 27 27 27 28 28 28 28 29 29 28 28 28 26 25 24 25 25 25 25 26 27 28 27 26 25 23 23 23 22 22 21 19 17 15
22 23 23 23 24 24 25 25 24 23 23 23 23 24 25 26 26 26 25 25 25 25 26 26 27 28 28 29 29 28 28 27 27 27 27 27 27 27 27 27 28 28 29 29 28 28 27 25 24 24 24 24 24 25 26 27 27 27 25 24 24 24 24 23 22 21 21 19 15
23 23 23 23 24 24 25 25 24 23 22 23 24 25 25 25 26 25 25 25 25 26 26 26 27 27 28 28 28 28 27 27 27 27 27 27 27 27 27 27 27 28 28 29 28 28 27 25 24 24 24 25 25 25 26 26 26 26 24 23 23 25 25 24 22 21 21 20 17
23 23 23 23 24 25 25 25 24 23 22 23 24 25 26 26 26 26 25 25 26 26 26 26 26 27 27 27 27 27 27 27 27 27 27 28 27 27 27 27 27 27 28 29 28 27 26 25 24 25 26 25 24 24 25 26 26 25 25 24 24 25 26 25 23 20 19 20 19
23 23 23 24 24 25 25 24 23 23 23 23 25 26 26 26 26 26 26 26 26 26 26 26 26 26 26 26 26 27 27 27 27 27 27 27 27 28 28 28 27 28 28 28 28 27 26 25 25 26 26 26 24 23 24 25 25 26 25 25 25 25 25 26 25 22 18 18 18
23 23 23 24 24 25 24 24 23 23 23 24 25 26 26 27 27 27 27 27 26 26 26 25 25 25 25 25 26 27 27 27 27 27 26 27 27 28 28 28 29 29 29 28 28 27 27 27 26 26 26 25 24 23 23 24 24 25 25 26 26 26 26 27 26 24 21 18 16
23 23 23 24 25 24 24 24 23 23 23 25 26 27 27 27 27 27 27 27 27 26 26 25 25 25 25 25 26 27 28 27 27 27 27 27 27 28 28 29 30 30 30 29 29 29 29 28 27 26 25 25 24 23 22 22 22 23 24 25 26 26 26 26 26 25 24 21 18
23 23 24 24 25 24 24 24 23 23 24 25 26 27 28 28 28 28 28 28 28 26 26 26 26 26 25 25 26 27 27 27 27 27 27 27 28 28 29 30 31 31 31 31 30 30 30 29 27 25 24 24 24 23 22 21 21 22 23 24 25 25 26 26 26 25 24 22 21
23 23 24 24 25 25 25 25 23 23 24 26 27 28 28 28 28 29 29 29 28 27 27 27 27 26 25 25 26 27 27 27 26 27 27 28 29 29 30 31 31 32 32 32 32 31 31 30 27 24 23 22 22 22 21 20 20 21 22 23 24 25 25 25 26 25 24 23 22
23 24 24 25 26 26 26 26 25 25 25 27 28 29 29 29 29 30 30 29 29 28 28 29 28 26 26 26 26 27 27 27 26 27 28 28 29 30 30 31 32 32 32 32 32 32 32 29 25 22 21 21 20 20 20 20 19 20 21 22 23 24 25 25 25 25 25 25 24
24 24 25 25 26 27 27 27 26 26 27 28 29 29 29 30 30 31 31 31 30 30 30 29 28 27 26 26 27 27 27 26 27 27 28 29 29 30 30 31 32 32 32 32 32 33 32 28 23 20 19 19 19 19 19 19 19 20 20 21 22 23 24 25 25 25 25 25 24
24 25 26 26 27 28 28 27 27 27 28 28 29 29 30 31 32 33 33 33 32 30 30 30 29 28 27 27 27 27 27 26 27 27 28 29 29 30 30 31 32 32 32 32 33 33 31 25 20 18 18 18 18 19 19 20 20 20 20 21 22 23 23 24 24 24 24 25 24
25 26 26 27 28 28 28 28 28 28 28 29 29 30 31 32 33 34 34 34 33 31 31 30 29 28 28 28 28 28 28 27 27 28 28 29 29 29 30 31 32 32 32 32 33 33 29 21 17 17 18 18 18 19 20 20 20 20 21 21 22 22 23 23 24 24 24 25 25
25 26 27 27 28 28 28 28 28 28 29 29 29 29 31 33 34 35 34 34 33 32 31 31 30 29 28 28 28 29 29 28 28 28 28 28 29 29 30 30 31 32 33 33 34 34 28 18 14 15 18 19 19 19 20 21 21 21 21 22 22 22 23 23 24 25 25 25 25
26 26 27 27 28 28 29 28 29 29 29 29 29 29 31 33 35 35 35 34 32 32 31 30 30 29 29 28 28 29 29 29 29 29 29 28 28 29 29 30 31 32 33 34 35 34 27 15 12 15 19 20 20 20 20 21 22 22 22 22 22 22 23 24 24 25 26 26 26
26 27 27 28 29 30 30 29 29 29 29 29 28 29 31 34 36 36 35 34 33 32 31 30 30 29 28 28 29 30 30 30 30 30 29 29 28 29 30 30 31 32 33 34 36 35 26 13 12 16 20 21 21 21 21 21 22 22 23 23 23 23 23 24 25 25 26 26 26
26 27 28 29 31 31 30 29 29 29 29 28 28 29 31 34 36 36 35 34 33 32 32 31 30 29 28 28 29 30 31 30 30 30 30 29 28 29 30 30 31 31 31 34 37 36 27 14 14 18 21 22 22 21 21 21 22 22 23 23 23 23 24 24 25 25 26 27 27
27 28 29 31 32 32 31 30 30 30 29 28 28 29 32 35 36 35 35 34 34 33 31 31 30 28 28 28 29 30 31 30 30 30 30 29 29 29 30 30 31 31 31 32 36 38 31 18 16 18 20 22 22 21 21 21 22 22 22 22 22 23 23 24 25 25 26 26 27
28 29 31 32 32 32 31 31 31 30 29 28 28 30 33 35 35 35 34 34 34 32 31 30 29 28 27 28 29 31 31 30 30 29 29 28 29 29 30 31 31 31 31 32 36 39 34 20 17 17 19 21 20 20 20 21 22 23 23 22 22 22 23 23 24 24 25 25 26
29 31 32 33 33 32 31 31 31 30 28 28 29 32 34 35 34 34 34 34 33 31 30 28 27 26 26 27 29 31 31 31 30 29 28 28 28 29 29 30 31 32 32 33 35 38 35 22 17 16 17 19 19 19 19 20 21 22 23 23 23 23 22 22 22 23 23 24 25
30 32 33 33 32 32 32 32 32 30 28 28 30 32 34 34 34 34 33 33 32 30 28 27 27 26 26 27 29 30 31 31 30 29 28 27 27 28 29 30 31 32 32 33 35 37 35 27 18 14 15 16 18 19 20 20 21 22 23 23 23 23 22 21 21 21 21 22 23
31 32 33 32 32 31 31 31 31 29 28 28 31 33 34 34 33 33 33 32 31 28 27 26 27 27 27 28 29 30 31 31 30 28 27 27 27 27 28 29 31 31 31 32 34 35 36 34 18 12 14 15 17 18 19 20 20 21 22 22 23 23 22 21 21 20 20 20 21
32 33 32 32 31 31 31 31 30 28 27 28 31 33 33 33 33 32 32 31 29 27 26 27 28 28 28 29 29 29 30 30 30 29 28 27 27 27 28 29 30 31 31 31 33 34 36 37 20 12 12 14 16 17 18 19 20 20 21 22 23 23 23 22 21 20 19 19 19
32 32 32 31 31 30 31 31 29 28 27 29 31 32 33 32 32 31 30 29 27 27 27 28 29 29 29 29 29 29 30 29 29 28 28 28 27 27 27 28 29 30 30 31 32 33 35 36 22 13 11 13 15 16 18 18 19 19 20 21 22 23 23 22 22 20 18 18 18
32 32 32 31 31 30 30 31 29 27 28 29 30 32 32 32 31 30 29 28 27 27 28 29 29 29 29 29 30 30 29 28 28 28 28 28 27 27 27 27 28 29 29 30 31 32 33 34 23 14 10 12 14 16 17 17 18 18 19 20 20 21 22 23 23 21 19 17 16
32 32 31 31 30 30 30 30 28 27 27 28 30 31 31 32 31 31 30 28 26 27 28 28 28 28 28 28 29 29 28 27 27 28 28 28 27 27 26 26 27 28 29 29 30 31 32 33 25 15 9 11 13 15 16 17 18 18 19 19 19 19 21 22 23 22 19 17 15
31 31 31 30 30 30 30 29 28 27 27 28 29 31 31 31 31 30 29 27 26 27 28 28 28 28 28 28 28 27 27 27 27 28 28 28 27 27 26 26 27 28 29 29 30 30 32 33 27 17 10 10 11 13 15 16 17 18 19 18 18 18 19 21 22 22 20 17 15
31 31 30 30 30 29 29 28 27 26 27 28 29 30 31 31 31 29 28 26 26 27 28 29 29 28 28 28 27 26 26 26 27 28 28 28 27 27 27 27 28 29 29 30 30 31 31 32 27 19 11 10 11 12 14 15 16 18 18 17 17 18 19 20 21 22 21 18 14
30 30 29 29 29 29 28 27 27 27 27 27 28 30 31 31 31 29 27 26 26 27 28 28 28 28 28 28 27 26 25 26 26 27 28 28 28 27 27 28 30 31 31 31 32 33 32 31 28 20 13 11 11 12 13 14 16 16 17 16 16 17 18 19 21 22 22 19 15
30 29 29 29 29 29 28 27 26 26 27 27 28 29 29 30 30 29 28 25 26 27 28 28 28 28 27 27 26 25 24 25 26 26 27 27 27 27 28 29 30 32 32 32 34 35 33 31 29 23 16 13 12 12 13 14 15 15 15 15 15 16 17 18 19 21 22 22 17
29 29 28 28 28 28 27 26 25 26 26 27 28 28 29 29 29 29 27 26 26 26 27 27 27 27 27 26 24 24 24 24 25 26 26 27 27 27 28 29 31 32 33 33 35 35 34 32 31 26 20 15 13 13 13 14 14 15 14 14 14 14 16 17 18 20 22 23 20
29 29 28 28 28 28 27 25 25 25 26 27 27 28 28 28 28 28 28 27 26 25 25 25 26 27 26 25 23 22 23 24 25 26 25 25 26 26 28 29 31 32 33 34 35 35 34 32 32 29 24 18 14 13 13 13 14 14 13 13 13 14 15 16 17 18 20 22 22
29 29 28 28 28 27 26 25 24 24 25 26 27 27 27 27 28 29 29 27 26 25 24 24 25 27 26 24 22 21 22 24 26 26 26 25 25 26 27 30 31 32 33 33 34 34 34 32 32 31 28 21 17 14 13 13 13 13 13 13 13 13 14 15 16 17 19 21 23
29 29 29 29 28 27 26 24 24 24 25 26 26 26 26 27 30 31 31 28 26 25 24 24 25 26 26 24 21 20 21 23 25 26 26 25 25 25 27 29 30 31 31 32 32 33 33 32 32 32 30 25 20 15 12 12 12 12 12 12 12 12 13 14 15 16 18 20 22
Wind_Direction
346 346 346 345 343 341 339 338 337 337 336 334 332 330 330 330 330 329 329 328 327 325 323 322 321 321 321 322 323 324 324 325 326 328 330 330 329 330 330 331 332 332 331 330 329 329 329 328 326 322 317 311 305 299 294 290 287 285 284 283 282 282 282 281 279 277 275 273 271
345 345 345 345 345 343 341 339 338 337 336 334 332 331 331 331 331 330 328 328 325 324 322 321 321 321 321 322 323 324 324 325 326 329 330 330 330 330 331 332 333 333 332 331 330 330 330 329 327 324 321 317 312 306 300 295 291 287 286 285 284 284 282 278 276 275 275 274 273
344 345 345 346 345 344 342 340 338 337 335 334 333 332 332 332 331 330 328 326 325 323 322 322 322 322 322 322 323 324 324 324 327 329 330 330 330 331 332 332 334 335 334 333 332 331 330 330 328 327 325 322 318 313 307 302 296 291 288 288 286 283 280 277 277 278 279 279 278
344 344 345 345 345 344 343 340 338 336 335 334 333 333 333 332 331 330 328 326 326 324 323 323 323 322 323 323 324 325 325 325 328 330 330 330 331 331 333 334 334 335 335 335 333 332 331 331 331 331 330 327 323 319 315 311 306 298 292 288 284 282 280 280 281 282 282 280 278
343 343 344 344 343 343 341 339 338 336 335 334 334 334 333 332 331 330 329 328 326 325 324 324 324 323 324 325 325 325 325 326 330 331 331 331 331 332 334 334 335 335 336 336 334 333 333 333 333 334 333 330 328 325 323 320 316 309 300 291 284 279 278 278 281 281 280 278 276
342 342 342 342 341 341 340 339 338 337 336 335 334 334 334 333 332 331 329 327 325 325 326 326 326 325 326 326 326 326 326 327 330 332 331 331 332 333 334 334 335 336 336 336 335 334 334 334 335 336 336 335 332 330 329 329 326 321 312 301 289 281 277 276 279 279 277 275 274
340 340 341 340 340 340 339 338 338 337 337 336 335 335 334 333 331 330 329 328 327 327 327 327 327 327 327 327 326 326 326 327 330 331 331 331 332 333 334 334 335 335 336 336 336 335 334 334 335 336 337 337 337 336 334 334 333 330 325 317 306 293 285 281 280 277 274 272 273
340 340 340 339 339 339 338 338 337 337 336 336 336 335 334 333 332 331 330 330 329 328 327 327 327 327 327 327 327 326 325 326 329 331 331 331 331 332 334 334 335 336 336 337 336 335 334 335 335 335 335 336 337 337 337 337 337 335 332 328 323 315 306 297 287 277 271 270 274
339 339 339 338 338 338 338 337 337 336 336 336 335 335 334 334 333 332 331 330 328 328 327 327 327 328 328 328 329 328 327 326 328 330 330 331 331 331 332 333 334 335 336 337 337 337 336 335 334 334 335 334 335 336 338 339 340 339 336 333 332 329 324 314 298 282 271 267 268
337 338 338 338 338 338 337 337 337 336 336 335 335 335 335 335 334 333 332 329 328 327 327 327 328 328 329 329 330 329 328 327 328 329 329 329 330 330 331 332 333 334 335 336 338 337 336 334 333 333 333 333 333 335 339 342 343 342 339 337 336 335 333 326 313 291 271 259 256
336 337 337 337 337 337 337 337 337 337 336 336 336 337 336 336 335 334 332 330 329 328 328 328 328 329 329 329 330 330 329 329 327 327 327 328 329 330 330 331 332 333 334 335 337 337 336 334 332 331 332 332 333 335 338 343 345 346 344 342 341 341 341 339 330 310 282 260 251
336 336 337 337 337 337 337 337 337 337 337 337 337 337 337 337 336 335 334 332 331 329 329 329 329 329 329 329 329 330 330 329 328 327 327 327 327 328 329 330 331 332 333 334 336 336 335 334 331 330 330 332 333 334 337 342 346 348 348 347 346 346 346 346 343 333 310 279 258
336 337 337 337 338 338 338 338 337 337 337 337 337 337 337 337 337 336 335 334 332 331 330 330 330 329 328 328 328 329 330 329 328 327 326 326 327 328 329 330 331 332 333 333 334 335 334 333 331 329 329 330 331 333 336 340 346 349 351 351 350 349 348 349 349 346 336 316 286
338 338 338 338 339 339 339 339 338 337 337 337 337 337 337 337 337 337 336 335 333 331 330 330 330 329 328 327 327 329 330 330 329 328 327 326 327 328 329 330 332 333 333 333 333 333 333 332 331 330 328 328 329 332 335 339 344 350 353 354 353 351 350 350 351 351 349 342 325
339 339 340 340 340 340 340 339 338 338 337 337 337 337 337 337 337 337 337 335 334 332 332 331 330 330 328 327 328 329 330 330 329 328 328 327 328 329 330 331 333 333 333 333 332 332 332 332 331 329 328 327 329 331 335 339 343 350 355 357 356 355 353 353 353 353 353 351 347
340 340 341 341 341 341 341 340 339 337 337 336 337 337 338 338 337 337 337 336 335 334 333 333 332 330 329 329 330 330 331 330 330 329 328 328 329 330 331 332 333 333 333 333 332 331 331 332 332 330 327 327 329 331 335 339 343 350 356 360 0 359 357 356 356 356 356 355 355
341 341 341 341 341 341 341 340 339 337 336 336 337 338 338 338 338 337 337 336 336 335 334 334 334 332 331 331 332 332 332 331 330 329 329 329 330 331 332 333 333 333 333 333 332 331 331 332 333 331 329 329 331 333 336 341 345 351 356 0 3 3 1 1 0 360 359 359 358
341 341 341 341 342 341 341 340 339 338 336 336 337 339 339 339 338 337 337 338 338 336 335 335 336 335 333 332 332 333 333 331 330 329 330 330 331 332 333 333 334 334 333 333 332 331 332 333 334 333 332 332 334 337 340 344 349 353 358 2 5 6 6 6 5 4 3 3 1
342 341 341 341 341 341 340 340 338 337 336 337 338 339 339 340 339 339 339 340 340 339 337 337 337 336 335 334 334 334 334 332 331 330 331 333 334 334 335 335 335 334 334 333 333 333 334 335 336 335 335 337 339 342 345 349 353 358 3 6 8 9 10 10 9 8 7 6 4
342 342 342 341 341 340 339 339 338 337 337 337 338 339 340 341 341 341 340 341 341 341 341 340 338 337 336 336 336 335 335 334 333 333 334 335 336 336 337 337 336 335 334 333 333 334 335 336 337 340 343 346 347 348 351 354 358 2 6 9 11 12 13 14 15 14 13 11 9
343 342 342 341 341 340 339 339 338 338 337 338 339 340 341 342 342 342 342 342 342 343 343 342 340 338 337 337 336 336 336 336 336 336 336 337 337 338 338 338 337 336 335 334 334 334 334 333 337 348 353 355 356 356 358 359 1 5 8 12 13 15 17 19 20 20 19 17 15
342 342 342 341 341 340 340 340 339 339 338 338 339 340 341 342 342 342 343 344 344 344 344 343 342 340 338 337 336 337 337 338 338 339 339 339 339 340 340 339 338 337 336 335 335 333 331 330 346 358 0 1 3 4 4 4 4 7 9 12 15 17 20 23 24 25 25 23 21
342 342 342 341 342 342 342 341 341 340 339 339 340 341 341 342 342 344 345 346 346 346 346 345 343 341 339 337 338 338 339 339 340 341 342 341 340 341 341 340 340 339 338 336 335 334 334 341 1 6 5 5 8 9 10 10 9 9 10 12 15 18 21 24 26 28 28 28 26
342 341 341 342 343 344 344 343 342 341 341 340 341 341 341 342 343 345 346 346 347 348 347 346 344 341 339 339 340 340 341 340 340 341 342 342 341 341 342 341 341 340 339 338 336 338 345 2 11 8 6 8 10 13 15 15 13 11 11 12 13 16 20 23 27 28 29 29 29
341 341 342 343 345 345 345 345 344 343 342 342 341 341 341 342 344 345 346 347 348 349 349 347 345 342 341 340 341 342 342 341 341 341 341 341 341 342 342 341 341 341 340 339 336 342 352 10 13 9 7 10 13 17 19 19 17 14 13 12 13 14 17 22 26 28 29 29 29
341 342 343 345 346 346 346 346 345 344 343 343 342 342 342 343 344 345 346 347 348 349 349 346 345 343 342 341 342 343 343 342 342 341 341 340 341 342 343 341 341 341 340 339 337 343 352 5 11 10 10 12 17 20 22 20 19 17 16 14 14 15 16 18 22 26 29 29 29
342 343 344 345 347 347 347 347 347 347 345 344 343 342 342 344 345 346 346 347 348 349 348 346 344 343 342 342 343 343 343 343 342 342 341 341 341 342 342 341 340 340 340 339 338 343 349 358 6 10 13 16 21 24 24 21 20 18 17 16 16 16 17 17 19 22 26 28 29
343 343 345 346 347 347 347 348 348 348 346 344 343 343 343 345 346 347 347 348 348 348 347 345 344 344 344 343 344 344 344 344 344 343 342 341 342 343 342 341 340 340 340 339 339 342 348 355 1 9 15 19 23 27 27 24 20 18 16 15 15 16 17 17 18 20 22 25 27
343 344 345 346 346 347 347 348 348 347 345 344 343 344 345 346 347 347 348 348 348 347 345 343 344 344 344 344 344 344 345 346 345 344 343 343 343 344 343 342 340 340 340 340 340 341 346 354 1 12 17 19 20 23 24 22 20 17 15 13 13 14 15 15 16 17 19 22 24
344 345 345 346 346 346 347 347 347 346 344 343 344 345 346 347 347 347 347 347 346 344 343 343 344 344 345 345 345 345 346 346 346 345 344 344 345 345 344 342 341 341 341 341 341 340 344 354 5 20 20 18 17 16 17 18 18 16 14 12 12 12 13 13 13 15 17 20 23
344 345 345 345 345 346 346 347 346 345 344 343 345 346 347 347 347 347 346 346 344 342 343 345 346 346 346 347 347 347 347 346 346 346 346 346 346 346 345 343 342 342 342 342 342 341 345 355 9 23 21 17 16 15 14 15 17 17 15 13 12 11 11 11 12 14 17 20 22
343 344 345 345 345 345 346 346 346 344 343 344 345 346 347 346 346 347 347 346 343 342 343 345 346 347 347 347 347 347 347 346 346 346 347 348 347 347 346 344 344 344 344 344 345 343 346 354 7 19 21 15 16 17 17 16 18 18 17 15 13 11 12 12 13 15 19 23 24
343 344 344 344 344 344 345 346 345 343 342 343 345 346 346 346 346 347 348 347 344 342 343 344 345 345 345 346 346 346 346 346 347 347 348 348 349 349 348 347 346 346 346 345 346 345 346 352 2 13 18 12 16 20 21 20 20 20 19 17 15 13 13 14 15 18 23 29 30
342 343 343 343 343 343 344 345 343 341 342 343 345 346 346 346 346 347 347 346 344 342 343 345 345 345 345 346 346 346 346 347 347 348 348 350 351 351 351 349 348 348 348 346 347 346 346 350 0 11 19 15 19 22 24 23 22 22 21 20 17 15 15 16 17 20 25 31 34
341 341 341 341 341 342 343 343 342 341 341 342 344 345 346 346 346 346 346 344 343 343 345 347 348 348 348 348 348 347 347 348 348 348 349 351 352 353 353 351 350 351 351 347 346 345 346 350 1 12 24 21 22 24 26 25 24 23 23 22 20 18 17 18 19 20 23 29 37
340 340 339 339 340 341 342 341 341 340 341 342 343 344 344 345 345 346 345 343 343 344 346 348 349 349 348 349 349 348 347 348 348 348 350 352 354 354 354 352 352 354 354 349 346 346 348 353 3 13 24 24 24 25 26 26 25 25 25 25 23 20 19 20 20 20 20 25 38
339 338 338 337 338 339 340 340 340 340 340 340 341 342 343 344 344 345 345 343 344 345 346 347 347 347 347 346 346 345 346 348 348 349 350 353 354 355 355 353 354 356 355 351 350 350 354 359 6 13 21 24 24 24 26 27 27 27 28 28 27 24 23 23 23 21 20 23 37
337 337 337 336 336 337 338 339 338 338 338 339 340 341 343 343 343 343 344 343 344 344 344 345 345 345 345 345 344 344 345 347 348 349 351 352 354 355 355 354 355 357 356 353 353 355 360 5 8 12 18 23 23 24 25 27 29 30 32 32 30 28 27 27 27 25 23 24 35
335 335 335 335 335 335 336 336 335 336 336 337 339 340 342 343 342 342 343 344 345 344 343 342 343 344 345 344 343 344 345 347 349 351 352 353 354 354 355 356 357 358 358 355 355 358 2 7 10 13 16 21 22 23 24 28 31 34 36 35 33 31 31 32 32 31 28 27 34
333 333 334 334 334 334 333 332 332 333 335 336 337 338 340 341 341 343 344 345 346 345 344 342 343 346 347 346 344 344 346 347 350 353 354 354 355 355 357 358 358 359 359 357 356 359 4 7 9 12 15 19 19 20 23 29 34 37 39 38 35 32 32 34 36 36 34 32 34
331 331 332 332 332 332 331 329 329 331 333 334 335 336 337 338 341 344 345 345 345 344 344 343 345 347 349 348 346 345 346 348 350 353 355 356 356 357 358 359 359 359 359 358 357 0 4 6 7 10 13 16 16 16 20 28 34 39 42 41 38 35 33 34 37 39 38 38 37
Height
865 864 862 860 859 857 855 853 852 850 849 846 844 842 840 838 836 835 833 831 829 827 825 822 820 818 815 813 811 809 807 805 803 801 799 796 794 792 789 787 785 782 780 778 775 773 771 768 766 763 761 758 756 754 753 751 750 749 747 746 745 744 742 741 740 739 738 737 736
865 863 862 860 859 857 855 853 852 850 848 846 845 842 840 839 837 835 833 831 829 827 825 822 820 817 815 813 811 809 806 804 802 800 798 796 793 791 789 786 784 782 779 777 774 772 770 767 764 762 759 757 755 753 751 749 748 747 746 744 743 742 740 739 737 736 736 734 733
865 863 862 860 859 857 855 853 851 850 848 846 844 843 841 839 837 835 833 831 829 826 824 822 819 817 815 812 810 808 806 804 801 800 797 795 792 790 788 786 783 781 779 776 774 771 769 766 764 761 758 756 754 751 750 748 746 745 743 742 741 739 738 736 735 734 733 732 731
865 863 861 860 859 857 855 854 851 850 848 846 844 842 841 839 837 835 833 830 828 826 824 821 819 816 814 812 810 807 805 803 801 799 797 794 792 789 787 785 782 780 778 775 773 771 768 766 763 761 758 756 753 751 748 746 745 743 741 740 738 737 736 734 733 732 731 730 730
865 863 862 860 859 857 855 854 852 850 848 846 844 842 840 839 837 835 832 830 827 825 823 821 819 816 814 812 809 806 804 802 800 798 796 793 791 789 786 784 782 780 777 775 772 770 768 765 763 760 758 755 752 750 748 746 744 741 739 737 736 734 733 732 731 730 729 728 727
864 863 861 860 858 857 855 853 851 850 848 846 844 842 840 838 836 834 832 830 827 825 822 820 818 816 814 811 809 806 804 802 800 798 795 793 791 788 786 784 781 779 777 774 772 770 767 765 762 760 757 755 752 750 747 745 743 741 738 736 734 732 731 730 729 728 727 726 725
865 863 861 860 858 856 855 853 851 849 847 845 844 842 840 838 836 834 831 829 826 824 822 820 818 815 813 810 808 805 803 801 799 797 795 793 790 788 786 783 781 779 776 774 771 769 767 765 762 760 757 755 752 749 747 745 742 740 737 735 732 731 729 727 726 726 725 724 723
865 863 861 860 858 856 854 852 850 849 847 845 843 841 839 837 835 833 830 828 826 824 821 819 817 815 813 810 808 805 803 801 799 796 794 792 790 788 785 783 781 778 776 774 771 769 767 765 762 760 757 754 752 749 746 744 741 739 736 734 732 730 728 726 725 724 723 722 721
864 862 860 859 857 855 854 852 850 848 846 845 843 841 839 837 835 832 830 828 825 824 821 819 817 814 812 810 807 805 803 800 798 796 794 792 790 787 785 783 781 778 776 774 771 769 766 765 762 760 758 755 752 749 746 744 741 739 736 734 731 729 727 725 724 722 721 721 720
863 862 860 858 856 855 853 851 849 847 846 844 842 840 838 836 834 832 830 828 825 823 821 819 816 814 811 809 807 805 803 800 798 796 794 791 789 787 785 783 781 778 776 773 771 768 766 764 762 760 758 755 752 750 747 744 741 739 736 734 731 729 726 724 722 721 720 719 718
863 861 860 858 856 854 852 850 848 846 845 843 841 839 837 835 833 831 829 827 825 822 820 818 816 813 811 809 807 805 802 800 798 796 793 791 789 786 785 782 780 778 776 773 771 768 766 764 762 760 757 755 752 750 747 744 741 739 736 734 731 729 726 723 721 720 719 717 716
863 861 860 858 856 854 852 850 848 846 844 842 840 838 836 835 832 830 828 826 824 821 819 817 815 813 811 809 806 804 802 800 797 795 793 791 788 786 784 782 780 778 775 773 771 768 766 764 762 759 756 754 752 750 747 744 741 739 736 734 731 728 726 723 721 719 718 716 715
863 861 859 857 855 853 851 850 848 846 844 842 840 838 836 834 832 830 827 825 823 821 819 816 815 813 810 808 806 804 801 799 797 795 792 790 788 785 783 781 779 777 775 772 771 768 766 764 761 759 756 754 752 750 747 744 742 739 736 734 731 729 726 724 721 719 717 716 715
862 860 859 857 855 853 851 849 847 845 844 842 840 838 836 833 831 829 827 825 822 820 818 816 814 812 810 808 805 803 801 799 796 794 792 790 787 785 783 781 778 776 774 772 770 768 766 763 761 759 756 754 751 749 747 745 742 740 737 734 732 729 726 724 722 719 717 715 714
862 860 859 857 855 853 851 850 848 845 844 842 840 838 835 833 831 829 826 824 822 820 817 815 813 811 809 807 805 803 800 798 795 793 791 789 786 784 782 780 778 776 773 771 769 767 765 763 760 758 756 754 751 749 747 745 742 740 737 735 732 730 727 725 722 720 718 716 714
862 860 858 857 855 853 851 850 848 846 844 842 840 837 835 833 830 828 826 824 821 819 817 815 812 810 808 806 804 802 800 797 795 793 790 788 786 783 781 779 777 775 773 771 768 766 764 762 760 758 756 753 751 749 746 745 742 740 737 735 733 730 728 726 723 721 718 716 714
861 860 858 856 855 853 851 850 848 846 844 842 840 837 835 833 830 828 826 824 821 818 816 814 812 810 807 805 803 801 799 796 794 792 790 787 785 783 781 779 777 775 772 770 768 765 763 761 759 757 755 753 751 749 746 744 742 740 737 735 733 731 728 726 724 721 719 716 714
861 860 858 856 855 853 851 849 847 845 844 841 839 837 835 833 830 828 825 823 820 818 815 813 811 809 807 805 802 800 798 796 794 791 789 787 785 783 781 779 776 774 771 770 767 765 762 760 758 756 755 752 751 748 746 744 742 740 737 735 733 731 728 726 724 722 720 717 715
861 860 858 856 854 852 851 849 847 845 843 841 839 837 835 832 830 827 824 822 820 817 815 812 810 808 806 804 802 800 798 795 793 791 789 787 785 783 781 778 775 773 771 769 766 764 761 759 758 756 754 752 750 748 746 744 742 740 737 735 733 731 729 727 725 723 721 718 716
861 860 858 856 854 852 850 849 846 845 842 840 838 836 834 832 829 826 824 821 819 817 815 812 810 807 805 803 801 799 797 795 793 791 788 786 785 782 780 777 775 772 770 767 766 763 761 759 757 756 754 751 749 747 746 743 741 739 737 735 733 731 729 727 725 723 721 719 717
861 860 858 856 854 852 850 848 846 844 842 840 838 835 833 831 828 826 823 821 818 816 814 811 809 807 805 803 800 798 796 794 792 790 788 786 784 782 780 777 774 771 769 766 764 762 760 758 757 755 753 751 749 747 745 743 741 739 737 735 733 731 729 727 725 723 721 720 717
861 860 858 856 854 852 850 848 846 844 841 839 837 835 833 830 828 825 823 820 818 815 813 811 809 807 805 802 800 798 796 794 792 790 788 786 784 782 779 777 774 771 768 765 762 761 759 757 756 755 753 751 749 747 745 743 741 739 737 735 733 731 730 728 726 724 722 720 718
861 860 858 856 854 852 850 847 845 843 841 839 836 835 832 830 827 825 822 820 817 815 813 810 809 806 804 802 800 798 795 793 791 789 787 786 784 781 779 776 774 771 768 764 761 759 758 757 756 754 752 751 749 747 745 743 741 739 737 735 733 732 730 728 726 725 723 721 720
861 859 858 855 853 851 849 847 845 842 840 838 836 834 832 830 827 824 821 819 817 815 812 810 808 806 804 802 800 797 795 793 791 789 787 785 783 781 779 776 773 771 768 765 761 759 758 757 755 754 752 750 749 747 745 744 742 740 738 736 734 733 731 729 727 726 724 723 721
861 859 857 855 853 850 849 846 844 842 840 838 836 834 832 829 826 824 821 819 816 814 812 810 808 806 804 801 799 797 795 793 791 789 787 785 783 781 779 776 773 771 769 766 763 760 759 757 755 754 752 750 749 747 746 744 742 741 739 737 736 734 732 730 729 727 726 724 723
860 859 856 855 852 850 848 846 844 842 840 838 836 834 831 829 826 824 821 819 816 814 812 810 808 806 804 801 799 797 795 793 791 789 787 785 783 781 779 776 774 771 769 767 764 762 759 757 756 754 752 751 749 748 746 745 743 741 740 738 736 735 733 731 730 728 727 726 724
860 858 856 854 852 850 848 846 844 841 840 838 836 833 831 829 826 823 821 819 816 814 812 810 808 806 804 802 799 797 795 793 791 789 788 786 784 782 779 777 774 771 769 767 765 762 760 758 756 755 753 751 750 748 747 746 744 742 741 739 738 736 734 733 731 730 728 727 726
860 857 855 853 851 849 847 845 843 841 840 838 835 833 831 828 826 823 821 819 816 814 812 810 809 807 805 802 800 798 795 793 791 790 788 786 785 782 780 777 775 772 770 768 765 762 760 759 756 755 753 752 751 749 748 746 745 743 742 740 739 737 736 734 733 731 730 728 727
859 857 855 853 851 849 847 845 843 841 840 838 835 833 830 828 826 823 821 819 816 815 813 811 809 807 805 803 800 798 796 794 792 790 788 786 785 783 781 778 775 773 770 768 766 763 760 759 756 754 753 752 751 750 748 747 746 745 743 741 740 738 736 735 734 732 731 730 728
859 857 855 853 850 849 847 845 843 841 840 838 835 833 830 828 825 823 821 819 817 815 814 812 810 808 805 803 801 799 796 794 792 790 789 787 785 783 781 778 776 773 771 768 766 763 760 758 755 754 753 752 751 750 749 748 747 746 744 742 741 739 738 736 735 734 732 731 730
858 856 854 852 850 848 846 845 843 841 840 838 835 833 830 828 826 824 822 820 818 816 814 812 810 808 806 804 802 799 797 795 793 791 789 787 786 783 781 779 776 773 771 769 766 764 761 758 755 754 753 752 751 750 749 748 747 746 745 744 742 740 739 737 736 735 733 732 731
858 856 854 852 850 848 846 844 843 841 839 837 835 833 830 828 826 824 822 820 818 816 814 812 810 808 806 804 802 800 797 795 793 792 790 788 786 784 781 779 776 774 771 769 767 764 761 759 756 754 753 752 751 751 750 749 748 747 746 745 743 741 740 738 737 735 734 733 732
858 856 854 852 850 848 846 844 842 841 839 837 835 833 831 828 826 824 822 820 818 816 814 812 810 808 806 805 802 800 798 796 794 792 791 789 786 784 782 780 777 774 772 770 767 765 762 759 756 755 753 752 751 751 750 749 748 747 746 745 744 742 741 740 738 736 735 735 734
857 855 853 851 850 848 845 844 842 840 839 837 835 833 831 828 826 824 822 820 819 817 815 813 811 809 807 805 804 801 799 797 795 793 791 789 787 785 783 780 777 775 772 770 768 765 762 759 757 755 753 753 752 751 750 749 749 748 747 746 745 743 742 741 739 738 736 736 735
857 855 853 851 849 847 845 844 842 840 838 836 834 832 830 828 826 824 822 821 819 817 815 813 811 809 808 806 804 802 800 798 796 794 791 789 787 785 783 781 778 775 773 770 768 766 763 760 757 755 754 753 752 751 750 750 749 748 747 746 745 744 743 741 740 739 738 737 736
857 855 853 851 849 847 845 844 842 840 838 836 834 832 830 828 826 824 823 821 819 817 815 813 811 809 808 806 804 803 801 799 797 795 792 790 788 786 784 781 779 776 773 771 768 766 763 761 757 755 754 753 752 752 751 750 749 749 748 747 746 745 744 742 741 740 739 738 737
857 855 853 851 849 847 845 844 841 840 838 836 834 832 830 828 826 824 822 821 819 817 815 813 811 810 808 806 805 803 802 800 798 795 793 791 788 786 785 782 779 776 773 771 769 766 764 761 758 756 755 754 754 753 752 751 750 749 749 748 747 746 745 744 743 741 740 738 738
856 855 853 851 849 847 845 844 842 840 838 836 834 832 830 829 826 824 823 821 819 817 815 813 812 810 809 807 805 804 802 800 798 796 794 791 789 787 786 783 780 777 774 772 770 767 765 762 761 759 757 756 755 754 753 752 751 750 749 749 748 747 746 745 744 743 741 740 739
856 855 853 851 849 847 845 844 842 840 838 836 834 832 830 829 827 825 823 821 820 818 816 814 812 810 809 807 806 804 802 800 799 796 795 792 791 789 786 784 781 778 776 773 771 769 766 764 762 760 758 757 756 755 754 753 752 751 751 750 749 748 747 746 745 744 743 741 741
855 854 852 851 849 847 845 844 842 840 838 836 834 832 830 829 827 825 823 821 820 818 816 815 813 811 809 807 806 804 803 800 799 797 795 793 791 789 787 785 782 780 777 774 772 770 768 766 764 762 760 758 758 757 756 755 754 753 752 751 750 749 748 747 746 746 745 743 742
855 853 852 850 849 847 845 843 841 840 838 836 835 833 831 829 827 825 823 821 819 818 816 815 813 811 809 807 806 805 803 801 799 797 795 793 791 790 788 786 783 781 778 776 774 772 770 767 765 764 762 761 759 758 757 756 755 754 753 752 751 751 750 749 748 747 746 745 744